Change the Weather History Date:

Thursday, September 26, 2013

  Actual Average Record
Temperature  
Mean Temperature 60 °F -  
Max Temperature 73 °F 72 °F 89 °F (2007)
Min Temperature 46 °F 50 °F 38 °F (1983)
Degree Days  
Heating Degree Days 6    
Growing Degree Days 10 (Base 50)    
Moisture  
Dew Point 50 °F    
Average Humidity 71    
Maximum Humidity 93    
Minimum Humidity 44    
Precipitation  
Precipitation 0.00 in - - ()
Sea Level Pressure  
Sea Level Pressure 30.01 in    
Wind  
Wind Speed 1 mph (ESE)    
Max Wind Speed 5 mph    
Max Gust Speed -    
Visibility 10 miles    
Events      
Averages and records for this station are not official NWS values.
T = Trace of Precipitation, MM = Missing Value Source: NWS Daily Summary

Daily Weather History Graph

Daily Weather History Graph

Search for Another Location

Airport or City:

Trip Planner

Search our weather history database for the weather conditions in past years. The results will help you decide how hot, cold, wet, or windy it might be!

Date:

Astronomy

Sep. 26, 2013 Rise Set
Actual Time 6:56 AM EDT 6:55 PM EDT
Civil Twilight 6:29 AM EDT 7:22 PM EDT
Nautical Twilight 5:58 AM EDT 7:53 PM EDT
Astronomical Twilight 5:26 AM EDT 8:25 PM EDT
Moon 11:51 PM EDT (9/26) 1:47 PM EDT (9/26)
Length of Visible Light 12h 52m
Length of Day
11h 58m
Waning Gibbous, 55% of the Moon is Illuminated
Sep 26
Waning Gibbous
Sep 26
Last Quarter
Oct 4
New
Oct 11
First Quarter
Oct 18
Full

Hourly Weather History & Observations

Time (EDT) Temp. Dew Point Humidity Pressure Visibility Wind Dir Wind Speed Gust Speed Precip Events Conditions
12:53 AM 50.0 °F 46.9 °F 89% 29.95 in 10.0 mi Calm Calm - N/A   Clear
1:53 AM 51.1 °F 48.0 °F 89% 29.95 in 10.0 mi Calm Calm - N/A   Clear
2:53 AM 51.1 °F 48.0 °F 89% 29.94 in 10.0 mi Calm Calm - N/A   Clear
3:53 AM 48.9 °F 46.0 °F 90% 29.95 in 10.0 mi Calm Calm - N/A   Clear
4:53 AM 46.9 °F 45.0 °F 93% 29.96 in 10.0 mi Calm Calm - N/A   Clear
5:53 AM 48.9 °F 46.9 °F 93% 29.97 in 10.0 mi Calm Calm - N/A   Clear
6:53 AM 46.9 °F 45.0 °F 93% 29.99 in 10.0 mi Calm Calm - N/A   Clear
7:53 AM 50.0 °F 46.9 °F 89% 30.00 in 10.0 mi Calm Calm - N/A   Clear
8:53 AM 55.0 °F 50.0 °F 83% 30.01 in 10.0 mi Calm Calm - N/A   Clear
9:53 AM 62.1 °F 52.0 °F 70% 30.03 in 10.0 mi Calm Calm - N/A   Clear
10:53 AM 64.9 °F 52.0 °F 63% 30.03 in 10.0 mi Calm Calm - N/A   Clear
11:53 AM 68.0 °F 51.1 °F 55% 30.03 in 10.0 mi SSE 4.6 mph - N/A   Clear
12:53 PM 71.1 °F 50.0 °F 47% 30.02 in 10.0 mi East 3.5 mph - N/A   Partly Cloudy
1:53 PM 73.0 °F 51.1 °F 46% 30.01 in 10.0 mi NNW 4.6 mph - N/A   Partly Cloudy
2:53 PM 72.0 °F 48.9 °F 44% 30.00 in 10.0 mi WNW 4.6 mph - N/A   Mostly Cloudy
3:53 PM 73.0 °F 50.0 °F 44% 30.00 in 10.0 mi SSE 4.6 mph - N/A   Partly Cloudy
4:53 PM 71.1 °F 51.1 °F 49% 30.01 in 10.0 mi North 3.5 mph - N/A   Overcast
5:53 PM 69.1 °F 51.1 °F 53% 30.03 in 10.0 mi Calm Calm - N/A   Mostly Cloudy
6:53 PM 66.9 °F 51.1 °F 57% 30.03 in 10.0 mi SE 3.5 mph - N/A   Scattered Clouds
7:53 PM 63.0 °F 52.0 °F 67% 30.05 in 10.0 mi Calm Calm - N/A   Scattered Clouds
8:53 PM 64.0 °F 53.1 °F 67% 30.06 in 10.0 mi Calm Calm - N/A   Overcast
9:53 PM 62.1 °F 54.0 °F 75% 30.06 in 10.0 mi Calm Calm - N/A   Overcast
10:53 PM 62.1 °F 55.0 °F 78% 30.07 in 10.0 mi Calm Calm - N/A   Overcast
11:53 PM 60.1 °F 55.9 °F 86% 30.08 in 10.0 mi SE 4.6 mph - N/A   Overcast